#timestamp,LO_Frequency,Hit,StdDev 
1547337615.7,286046999.1,N
1547337635.5,286046998.6,N
1547337655.3,286047000.1,N
1547337675.2,286046999.9,N
1547337695.0,286046999.8,N
1547337695.9,286046999.8,N
1547337715.8,286047001.5,N
1547337735.6,286047004.0,N
1547337755.4,286047002.7,N
1547337775.3,286047002.1,N
1547337795.1,286047003.5,N
1547337815.8,286047001.3,N
1547337835.7,286047007.3,Y
1547337855.5,286047007.1,P
1547337875.4,286047007.4,N
1547337895.2,286047007.0,N
1547337915.0,286047006.6,N
1547337915.9,286047006.6,N
1547337935.8,286047009.0,Y
1547337955.6,286046998.7,P
1547337975.5,286047000.7,N
1547337995.3,286046998.2,N
1547338015.1,286046996.5,N
1547338035.9,286046997.2,N
1547338055.7,286046999.2,N
1547338075.5,286046999.5,N
1547338095.4,286046999.6,N
1547338115.2,286046997.5,N
1547338135.1,286046994.9,N
1547338136.0,286046994.9,N
1547338155.8,286046997.4,N
1547338175.6,286046998.8,N
1547338195.5,286046999.0,N
1547338215.3,286046999.4,N
1547338235.2,286046997.7,N
1547338255.9,286046998.0,N
1547338275.7,286046996.2,N
1547338295.6,286046994.2,N
1547338315.4,286046991.7,Y
1547338335.2,286046995.6,P
1547338355.1,286046997.8,N
1547338356.0,286046997.8,N
1547338375.8,286046997.4,N
1547338395.7,286046995.3,Y
1547338415.5,286046999.3,P
1547338435.3,286047000.0,N
1547338455.2,286046999.8,N
1547338475.0,286047002.2,N
1547338475.9,286047002.2,N
1547338495.8,286047002.6,N
1547338515.6,286047000.2,N
1547338535.4,286046999.9,N
1547338555.3,286047000.8,N
1547338575.1,286047000.5,N
1547338595.9,286047001.2,N
1547338615.7,286046999.9,N
1547338635.5,286047002.7,N
1547338655.4,286047000.4,N
1547338675.2,286047001.0,N
1547338695.0,286047000.7,N
1547338695.9,286047000.7,N
1547338715.8,286047000.2,N
1547338735.6,286047000.0,N
1547338755.5,286047000.9,N
1547338775.3,286047000.2,N
1547338795.1,286046998.1,N
1547338815.9,286046998.5,N
1547338835.7,286047001.1,N
1547338855.6,286047000.0,N
1547338875.4,286047001.2,N
1547338895.2,286046999.9,N
1547338915.1,286046998.5,N
1547338916.0,286046998.5,N
1547338935.8,286046999.7,N
1547338955.6,286047000.3,N
1547338975.5,286047000.0,N
1547338995.3,286047000.0,N
1547339015.2,286047002.8,N
1547339035.9,286046999.7,N
1547339055.7,286047000.9,N
1547339075.6,286047002.7,N
1547339095.4,286047000.3,N
1547339115.3,286047000.6,N
1547339135.1,286047002.7,N
1547339136.0,286047002.7,N
1547339155.8,286047001.5,N
1547339175.7,286047001.9,N
1547339195.5,286047002.7,N
1547339215.4,286047004.3,Y
1547339235.2,286047000.2,P
1547339255.0,286047000.1,N
1547339255.9,286047000.1,N
1547339275.8,286047001.5,Y
1547339295.6,286047004.4,P
1547339315.4,286047002.4,N
1547339335.3,286047002.0,N
1547339355.1,286047002.1,N
1547339375.9,286047000.1,N
1547339395.7,286047000.5,N
1547339415.5,286047001.1,N
1547339435.4,286046998.3,N
1547339455.2,286047000.4,N
1547339475.0,286046999.7,N
1547339475.9,286046999.7,N
1547339495.8,286047001.7,N
1547339515.6,286047004.0,N
1547339535.5,286047004.3,N
1547339555.3,286047002.4,N
1547339575.1,286047000.8,N
1547339595.9,286046998.2,N
1547339615.7,286047000.9,N
1547339635.5,286047000.2,N
1547339655.4,286047001.5,N
1547339675.2,286047000.9,N
1547339695.1,286047000.2,N
1547339696.0,286047000.2,N
1547339715.8,286047000.5,N
1547339735.6,286046999.9,N
1547339755.5,286046999.9,N
1547339775.3,286047000.2,N
1547339795.1,286047001.7,N
1547339815.9,286047002.2,N
1547339835.7,286047011.9,Y
1547339855.6,286046998.1,P
1547339875.4,286047000.6,N
1547339895.2,286047000.1,N
1547339915.1,286047000.5,N
1547339916.0,286047000.5,N
1547339935.8,286046998.2,N
1547339955.6,286047000.0,N
1547339975.5,286046998.3,N
1547339995.3,286047000.6,N
1547340015.2,286046998.5,N
1547340035.9,286047004.2,Y
1547340055.7,286047001.4,P
1547340075.6,286047002.2,N
1547340095.4,286047001.6,N
1547340115.2,286047004.2,Y
1547340135.1,286047001.9,P
1547340136.0,286047001.9,P
1547340155.8,286047000.7,N
1547340175.7,286046999.3,N
1547340195.5,286046998.3,N
1547340215.3,286046999.2,N
1547340235.2,286047000.3,N
1547340255.0,286047001.1,N
1547340255.9,286047001.1,N
1547340275.7,286046998.9,N
1547340295.6,286047000.8,N
1547340315.4,286047000.5,N
1547340335.3,286047000.7,N
1547340355.1,286046999.4,N
1547340356.0,286046999.4,N
1547340375.8,286046999.6,N
1547340395.7,286046999.6,N
1547340415.5,286046999.3,N
1547340435.3,286046996.5,Y
1547340455.2,286046996.8,P
1547340475.0,286046994.9,P
1547340475.9,286046994.9,N
1547340495.8,286046995.4,N
1547340515.6,286046996.4,N
1547340535.4,286046996.0,N
1547340555.3,286046997.6,N
1547340575.1,286046997.9,N
1547340595.8,286046997.4,N
1547340615.7,286046996.6,N
1547340635.5,286046997.4,N
1547340655.3,286046998.0,N
1547340675.2,286046997.3,N
1547340695.0,286046997.8,N
1547340695.9,286046997.8,N
1547340715.8,286046998.4,N
1547340735.6,286047000.8,N
1547340755.4,286046999.5,N
1547340775.3,286046999.1,N
1547340795.1,286046999.4,N
1547340815.8,286046999.6,N
1547340835.7,286046997.0,N
1547340855.5,286046997.8,N
1547340875.4,286046995.6,N
1547340895.2,286046995.9,N
1547340915.0,286046995.6,N
1547340915.9,286046995.6,N
1547340935.8,286046997.1,N
1547340955.6,286046997.5,N
1547340975.5,286046993.8,Y
1547340995.3,286047001.2,P
1547341015.1,286047000.8,N
1547341035.9,286047000.1,N
1547341055.7,286047002.5,N
1547341075.5,286047003.7,N
1547341095.4,286047001.3,N
1547341115.2,286047003.4,N
1547341135.1,286047003.9,N
1547341136.0,286047003.9,N
1547341155.8,286047002.7,N
1547341175.6,286047000.2,N
1547341195.5,286046998.3,N
